RH
28 25 24 22 20 18 16 15 14 13 11 10 9 9 8 9 9 10 11 11 12 12 12 13 13 13 12 13 13 13 13 12 12 12 12 12 12 12 12 11 11 10 9 9 9 8 9 9 9 9 10 10 11 11 11 11 11 12 14 17 20 23 24 26 26 26 26 25 24 23 22 21 21 20 18 17 16 15 14 15 15 16 17 18 17 18 18 18 20 21 22 24 25 25 24 23 22 21 21 21 21 21 21
31 30 29 28 24 21 17 16 16 14 12 11 10 9 9 9 10 10 10 11 11 11 12 13 13 14 12 12 12 12 11 11 11 11 11 11 12 12 12 11 10 10 10 10 10 10 10 9 10 10 10 10 10 11 11 11 11 11 13 15 18 21 24 25 26 26 25 24 23 23 22 22 21 21 21 20 19 19 18 17 16 16 17 18 18 18 18 18 19 21 24 24 25 25 25 24 23 21 20 20 19 19 19
33 32 31 30 27 23 19 19 18 16 14 13 12 11 11 11 10 10 10 10 11 11 11 12 13 13 11 10 10 10 10 10 10 10 11 11 11 12 11 11 11 11 11 11 11 11 11 11 11 11 11 10 10 10 11 11 11 11 11 13 15 18 21 23 24 24 24 24 24 23 23 22 22 22 22 22 22 22 21 20 19 18 17 17 18 18 18 17 17 19 22 24 26 26 26 25 24 22 21 20 19 19 18
33 33 32 29 26 23 21 20 19 18 17 16 15 15 13 13 12 11 10 10 10 10 10 10 11 10 10 10 9 10 10 10 10 10 10 11 11 11 12 12 12 12 12 12 13 13 13 13 13 13 13 13 13 12 12 12 12 12 12 13 14 16 18 20 22 23 24 25 26 26 26 25 24 23 23 22 22 22 21 21 19 18 17 17 17 17 17 17 17 17 19 22 25 27 27 28 27 25 24 22 21 21 20
34 33 31 27 25 23 22 21 21 20 19 18 17 17 16 15 14 13 12 11 10 10 10 10 10 9 10 10 10 10 10 10 11 11 11 12 12 13 13 13 13 13 14 14 14 15 15 16 16 16 16 16 16 16 15 14 14 14 15 15 15 16 17 18 20 22 24 26 28 29 28 26 25 23 22 21 20 20 20 20 19 18 18 17 17 17 17 18 18 18 18 21 24 27 28 31 31 30 28 26 25 24 23
31 29 26 24 23 22 22 22 22 22 22 21 20 19 19 17 16 15 15 14 13 13 12 12 11 11 11 11 12 12 12 12 12 12 13 13 13 14 14 14 15 15 15 16 16 16 17 17 17 17 18 18 18 18 17 17 16 15 15 15 15 16 16 16 17 18 20 22 25 27 27 26 25 23 21 21 20 20 20 20 20 21 21 20 19 18 19 19 20 21 21 21 22 25 27 31 34 35 33 31 29 27 26
27 25 24 23 23 23 22 22 22 23 22 22 22 21 21 20 19 18 17 17 16 16 16 15 15 15 15 15 15 15 15 15 15 15 15 15 15 16 16 16 17 17 17 17 18 18 18 18 18 18 18 18 18 18 18 18 18 17 16 16 16 16 16 16 16 17 17 19 21 23 25 25 24 23 22 22 22 22 22 22 22 23 23 24 23 23 23 22 22 22 22 23 23 24 26 29 32 34 35 35 33 32 30
25 25 25 24 24 23 23 23 23 23 23 23 23 23 23 22 22 21 20 20 20 19 18 18 18 18 18 18 17 17 17 17 17 17 18 18 18 18 18 18 18 19 19 19 19 19 19 19 19 19 19 19 19 19 19 19 19 19 19 19 19 19 19 19 19 19 20 20 21 22 24 25 25 25 24 24 23 23 22 22 22 22 23 24 25 25 25 25 25 24 23 23 23 24 26 27 30 33 35 36 36 34 33
26 27 26 26 26 25 25 25 24 24 24 24 25 25 24 24 24 23 23 23 22 22 21 21 20 20 20 20 19 19 19 19 19 19 19 20 20 20 20 20 20 20 21 21 21 21 21 21 21 21 21 21 21 21 21 22 22 22 22 23 23 23 24 24 24 24 24 25 25 25 26 26 27 26 25 25 24 23 22 22 21 21 23 23 24 24 24 25 27 27 26 23 23 23 23 25 28 31 32 35 36 36 35
27 27 27 28 28 28 27 27 26 26 26 26 26 26 26 26 26 25 25 25 24 24 24 23 23 23 22 22 22 22 21 21 21 21 21 21 21 22 22 22 22 22 22 22 22 22 22 22 22 22 22 23 23 23 23 24 24 25 25 26 26 27 27 28 28 28 28 28 28 28 27 27 27 27 26 25 25 24 23 22 21 20 20 21 22 23 24 25 26 27 26 24 23 23 23 23 26 30 31 33 34 36 36
27 28 28 29 29 29 29 29 29 28 28 28 28 27 27 27 27 27 27 26 26 26 25 25 25 25 24 24 24 24 24 23 23 23 23 23 23 23 23 23 23 23 24 24 24 24 24 24 24 24 24 25 25 25 26 26 27 27 28 29 30 30 31 31 31 31 31 31 31 31 30 30 29 29 28 27 26 24 23 22 21 20 19 19 19 19 20 21 22 23 24 24 25 24 23 23 24 26 29 30 32 34 35
27 28 29 29 30 31 31 31 31 31 31 31 30 30 30 30 29 29 29 29 28 28 28 27 27 27 26 26 26 26 25 25 25 25 25 25 24 24 25 25 25 25 26 26 26 26 26 27 27 27 27 28 28 28 29 29 30 30 31 32 33 34 34 35 35 35 35 34 34 33 33 32 31 30 29 28 26 25 24 23 22 20 19 19 18 18 17 18 18 19 21 23 24 25 24 23 23 24 27 29 30 31 32
29 29 30 30 31 32 32 33 33 34 34 34 33 33 33 32 32 32 31 31 31 30 30 30 30 30 29 29 29 28 28 28 28 28 28 27 27 27 27 27 28 28 28 28 28 29 29 29 30 30 31 31 31 32 32 32 33 33 34 34 35 35 36 37 37 37 37 37 36 35 34 32 31 30 29 28 27 26 25 24 23 22 21 21 20 19 19 18 17 17 18 19 21 23 25 24 24 24 25 27 29 31 31
31 31 31 32 32 33 34 34 35 35 35 36 36 35 35 35 35 35 34 34 33 33 33 33 33 32 32 32 32 32 31 31 31 31 31 31 31 31 31 31 31 31 31 31 31 32 32 32 33 33 33 34 34 34 35 34 35 35 36 36 36 36 37 37 37 37 38 38 37 36 35 33 31 30 29 28 28 27 26 26 25 24 23 23 22 22 21 20 20 19 18 18 18 19 22 24 24 23 23 24 27 29 30
33 33 34 34 34 34 35 35 35 36 36 36 36 36 36 36 36 36 36 36 36 36 36 36 35 35 35 35 34 34 34 34 34 34 34 34 34 34 34 34 34 34 34 34 35 35 35 35 35 35 35 36 36 36 36 36 36 36 37 37 37 37 37 37 37 36 36 36 36 35 35 33 32 31 30 29 29 28 28 28 27 26 25 25 24 24 23 23 23 22 21 20 19 19 19 22 24 24 23 23 24 25 26
35 36 36 36 36 36 36 36 36 36 36 36 36 36 36 37 37 37 37 37 37 37 38 38 38 38 38 37 37 37 37 37 37 37 37 37 37 37 37 37 37 37 37 37 38 38 38 38 38 37 37 37 37 37 37 37 37 37 38 38 38 38 37 37 36 36 35 35 35 34 34 34 33 32 32 31 31 30 30 30 29 29 28 27 27 26 26 25 25 24 24 24 23 22 20 21 22 23 22 24 23 22 22
35 36 37 37 37 37 36 36 36 36 36 36 36 37 37 37 37 37 37 37 37 38 38 38 39 39 39 39 39 39 39 39 39 39 39 39 39 39 39 39 39 40 40 40 40 39 39 39 39 38 38 38 38 38 38 38 38 38 38 38 38 37 37 36 35 34 34 34 34 34 34 34 34 34 34 33 33 33 33 32 32 32 31 31 30 30 29 28 27 26 26 26 26 26 25 23 23 23 23 24 24 23 21
34 35 36 36 36 36 36 36 36 36 37 37 37 37 37 37 37 37 37 37 38 38 38 39 39 40 40 40 40 40 41 41 40 41 41 41 41 41 41 41 41 41 40 40 40 40 39 39 38 38 38 37 37 37 37 37 37 37 37 36 35 35 34 33 33 33 33 33 33 33 34 34 34 34 34 35 35 35 35 35 35 35 35 34 34 34 33 32 30 29 29 28 29 29 29 28 27 26 26 26 25 24 23
32 32 33 33 34 34 35 35 36 37 37 38 38 38 38 38 38 38 38 38 39 39 39 40 40 40 41 41 41 41 41 41 41 41 41 41 41 41 41 41 41 41 40 40 39 39 38 38 37 37 37 36 36 36 35 35 34 34 33 32 32 31 31 31 31 31 32 32 32 33 33 33 34 34 34 35 35 36 36 36 36 37 37 37 37 37 36 36 35 34 33 32 32 32 33 32 32 31 31 30 29 27 25
30 29 29 30 30 31 32 33 34 35 36 36 37 37 37 38 38 38 38 38 38 39 39 40 40 41 41 41 41 41 41 41 41 41 41 41 41 41 41 41 41 40 40 39 38 38 37 37 36 36 35 34 34 33 33 32 31 30 29 29 29 29 29 29 30 30 31 32 32 32 33 33 34 34 35 35 36 36 37 37 37 38 38 38 38 38 39 39 39 38 38 37 36 36 35 35 35 35 35 35 34 33 30
29 29 28 29 29 30 31 32 33 33 34 34 34 34 35 35 35 36 36 36 36 37 38 38 39 39 40 40 40 40 40 41 40 40 40 40 40 40 40 40 40 40 39 38 38 37 36 35 35 34 33 32 31 30 30 28 28 27 27 27 27 28 28 28 29 30 31 31 32 32 33 34 34 35 35 36 37 37 37 38 38 38 38 38 39 39 39 40 41 41 42 41 41 40 39 38 38 38 37 38 38 38 37
31 31 31 32 32 32 33 33 33 33 33 33 33 33 33 33 32 33 32 32 33 34 35 35 36 36 37 37 37 38 38 39 39 39 39 39 39 39 38 38 38 38 37 36 35 35 34 33 32 32 31 30 29 28 27 27 27 27 27 27 27 27 28 29 29 30 31 32 32 33 33 34 35 36 36 37 37 38 38 38 38 38 38 38 38 38 39 39 40 42 43 44 45 45 43 42 41 41 40 40 39 40 40
35 35 36 36 37 37 37 37 37 36 36 35 35 34 34 33 33 32 32 32 32 32 33 33 33 33 33 34 34 35 35 35 36 36 36 36 36 36 35 35 35 34 34 33 32 32 31 31 30 29 29 28 28 27 27 27 27 26 27 27 27 28 28 29 30 31 31 32 33 34 34 35 36 36 37 37 38 38 38 38 38 38 39 39 38 38 39 39 39 39 41 42 42 43 45 46 46 45 43 42 41 41 41
38 39 40 40 41 41 41 40 40 39 38 38 38 37 37 36 35 35 34 34 34 34 34 34 33 32 32 33 33 33 33 33 32 32 32 32 32 32 32 31 31 30 30 30 29 29 29 29 28 28 28 27 27 27 27 27 27 27 27 28 28 29 30 30 31 32 33 33 34 34 35 36 36 36 37 37 38 38 39 38 38 39 39 39 39 39 39 39 38 38 39 40 41 42 44 45 45 46 46 46 45 44 43
41 42 42 43 43 43 43 42 41 40 40 39 39 39 39 38 38 37 37 37 37 37 37 36 35 34 34 34 34 33 33 32 32 31 31 31 30 30 29 28 28 27 27 27 27 27 27 27 27 28 27 28 28 28 28 28 28 28 28 29 30 30 31 32 33 34 34 34 35 35 36 36 36 36 37 38 38 38 38 38 38 39 38 38 39 39 39 39 39 38 37 38 40 41 42 42 41 42 44 46 47 47 46
43 44 44 44 44 44 44 43 42 41 41 40 40 40 40 39 38 38 38 38 38 38 37 36 35 36 36 35 35 35 34 34 33 32 32 31 30 29 28 27 27 26 26 26 27 27 27 27 28 28 28 29 29 30 30 31 31 31 31 32 32 33 34 35 35 36 36 36 36 36 37 37 37 37 38 38 38 38 38 38 38 38 38 38 38 38 39 38 38 37 37 37 37 38 39 39 40 41 42 43 44 45 47
45 46 46 46 46 46 45 44 43 42 42 41 41 41 40 39 39 38 39 38 38 37 36 34 34 34 35 35 35 34 34 34 33 32 31 31 30 30 29 28 27 27 28 28 29 29 30 30 30 31 32 32 33 33 34 34 34 34 34 35 35 36 36 37 37 37 38 38 38 38 38 38 38 38 38 38 38 38 38 38 38 38 38 38 37 37 37 36 35 35 34 34 34 34 34 35 36 38 38 38 39 40 43
45 47 48 48 47 47 46 45 44 43 43 42 42 41 41 40 39 39 39 38 38 36 35 34 33 33 34 34 34 33 33 33 32 32 31 31 30 31 30 30 30 30 30 31 32 33 33 34 34 35 35 35 36 36 37 37 37 37 37 37 37 37 38 38 38 38 38 38 38 38 38 38 38 38 38 38 38 38 37 37 38 38 37 37 36 35 34 33 32 32 31 31 31 31 31 32 32 33 34 34 35 35 36
46 48 48 49 48 48 47 46 45 44 43 43 42 42 41 41 40 39 39 38 37 36 35 33 32 33 33 34 33 33 33 32 32 32 31 31 31 31 31 31 31 31 32 34 35 36 36 37 37 38 38 38 38 38 38 38 38 38 38 37 37 37 37 37 37 37 37 38 38 38 37 38 38 38 37 37 37 37 36 37 37 37 36 36 35 33 32 31 30 30 29 29 29 29 30 30 30 31 31 32 32 33 33
46 47 48 48 48 47 47 46 45 44 44 43 43 42 41 40 39 38 38 37 36 35 33 32 32 33 34 34 34 33 33 33 32 32 32 32 32 32 31 31 31 31 32 34 35 36 37 38 38 38 38 38 38 38 38 38 38 37 37 36 36 35 35 35 35 35 35 36 35 36 36 35 36 36 35 35 35 35 35 35 35 35 35 34 33 31 30 30 29 29 28 28 28 28 28 29 29 30 30 30 31 32 32
45 46 47 47 47 47 46 46 45 45 44 43 43 41 41 39 38 36 36 35 34 33 32 32 33 34 34 34 34 34 33 33 33 33 33 33 32 31 30 29 29 30 31 33 34 36 37 38 38 38 38 38 38 37 37 37 36 36 35 34 33 32 32 32 32 32 33 32 33 33 33 33 33 33 33 32 32 32 32 33 34 34 34 33 32 31 30 30 29 28 28 28 28 28 28 28 28 28 28 29 30 30 31
45 45 46 46 46 46 46 45 45 45 44 43 42 40 39 37 35 34 34 33 32 32 33 34 35 35 35 35 35 34 34 34 34 34 34 33 32 31 29 29 29 31 32 34 35 36 36 37 37 37 37 37 37 37 36 36 35 34 33 31 30 29 29 30 30 30 30 30 30 30 30 30 30 29 29 29 30 30 30 31 31 32 33 33 32 32 31 31 30 29 29 28 28 28 28 28 28 27 27 27 28 28 29
46 45 46 46 46 46 45 45 44 44 44 42 40 38 35 34 33 33 33 33 33 34 35 36 36 36 36 36 36 35 35 35 35 35 34 34 33 31 30 29 31 33 35 36 36 36 36 36 36 36 36 36 36 35 35 34 34 32 30 28 26 26 27 27 28 28 27 27 27 27 27 27 27 27 26 27 27 28 29 30 31 32 32 33 32 32 32 33 32 32 31 30 30 30 30 29 29 28 27 27 27 27 27
46 46 46 46 45 45 45 44 44 43 42 41 38 35 32 32 33 33 34 34 35 36 36 36 36 36 36 36 36 36 36 36 36 35 35 34 32 30 29 30 32 34 35 36 36 36 35 35 35 35 34 34 34 33 33 32 31 29 26 24 23 24 25 25 26 26 25 25 25 25 25 24 24 25 25 25 26 28 29 30 32 32 32 32 32 31 33 34 33 33 33 33 33 33 33 32 31 30 29 29 28 27 27
46 46 46 45 45 45 44 43 42 41 41 39 35 32 32 33 34 35 35 36 36 36 36 36 36 37 37 37 37 37 37 36 35 34 33 32 30 28 28 29 31 33 34 34 34 33 33 32 32 32 32 31 31 31 30 29 27 25 22 21 22 22 23 23 23 23 23 23 23 23 23 23 23 23 24 25 28 29 31 34 35 35 34 32 30 30 33 33 34 34 34 34 34 34 34 34 34 33 33 32 32 31 31
46 46 45 45 44 44 43 41 40 40 39 36 33 31 33 34 35 35 35 36 36 36 36 36 37 37 38 38 38 38 37 35 33 31 30 28 27 27 27 29 30 31 32 32 31 31 30 30 29 29 29 28 28 27 26 25 22 21 19 20 21 21 21 21 21 21 21 21 21 21 21 22 22 24 25 27 29 31 32 33 35 35 34 31 29 29 31 32 32 32 31 32 33 34 35 35 35 35 35 35 35 35 36
46 46 45 44 43 42 41 40 39 38 38 33 31 31 33 34 35 35 35 36 35 36 36 36 37 38 38 38 37 36 33 31 29 28 27 27 26 26 27 27 28 28 28 28 28 27 27 26 26 25 25 24 23 22 21 20 19 18 19 19 19 19 19 19 19 19 19 19 19 20 20 22 23 24 26 27 30 31 31 32 32 31 30 29 28 27 26 27 27 27 28 29 31 33 34 36 37 38 38 38 38 37 37
46 45 44 43 42 41 40 39 38 37 35 31 29 30 32 33 34 35 35 35 35 36 36 37 37 37 37 36 34 32 30 28 28 27 26 26 26 25 25 25 25 24 24 24 23 23 22 21 21 20 19 19 18 17 17 17 17 18 18 18 18 18 18 18 18 18 19 19 19 20 20 21 22 23 24 25 27 28 28 28 28 28 26 25 24 22 20 19 20 21 23 24 26 29 31 34 37 38 39 39 38 38 38
45 44 43 41 40 39 39 38 36 33 30 27 27 28 30 31 32 33 34 34 35 35 36 36 36 35 34 32 30 29 28 27 26 26 25 25 24 23 23 22 22 21 20 19 18 17 17 16 16 15 15 15 15 15 16 16 17 17 17 17 18 18 18 18 18 18 18 18 19 19 20 20 20 20 20 21 22 24 25 25 27 28 27 24 22 19 17 17 18 18 19 20 22 24 27 30 32 35 36 37 38 38 38
43 42 41 39 38 38 37 35 32 29 26 25 26 27 28 29 30 31 32 32 33 34 34 34 33 32 30 29 28 28 27 26 25 24 23 22 22 21 20 20 19 18 17 16 15 14 14 14 14 13 14 14 15 15 16 16 16 16 17 17 17 17 17 18 18 18 18 18 19 19 19 19 18 18 18 18 19 20 21 23 25 26 26 23 20 18 17 17 18 18 19 20 21 22 23 25 27 29 31 32 33 34 35
41 39 39 38 36 35 33 30 27 25 25 25 26 27 27 28 29 29 30 31 32 32 32 31 30 30 29 28 27 26 24 23 22 21 20 20 19 18 17 16 16 15 14 14 13 13 13 13 13 13 13 14 14 15 15 15 16 16 16 17 17 17 17 17 17 17 18 18 18 18 18 18 18 18 17 17 17 17 18 19 20 20 19 18 17 17 17 17 17 18 18 19 20 21 21 22 23 24 25 26 28 29 31
39 38 38 35 32 29 27 26 26 26 26 26 26 27 27 28 29 30 30 31 31 31 30 29 29 28 27 26 25 23 22 21 19 19 18 17 16 16 15 14 14 14 13 13 13 13 13 13 13 13 14 14 14 15 15 15 15 16 16 16 17 17 17 17 17 17 17 17 17 17 18 18 18 18 18 18 17 17 17 17 17 17 17 16 16 16 16 16 16 17 18 18 19 20 20 20 21 21 22 23 24 26 27
36 33 32 29 27 26 26 26 26 26 27 27 28 28 29 29 30 30 31 31 31 31 30 28 27 26 25 23 22 21 19 18 17 16 15 15 14 14 13 13 13 13 13 13 13 13 13 13 13 14 14 14 14 15 15 15 15 16 16 16 16 16 16 16 16 16 17 17 17 17 17 17 18 18 18 18 18 17 17 17 17 16 16 16 16 15 15 15 15 15 16 17 18 18 19 19 20 20 20 21 22 23 24
30 28 26 26 26 26 26 26 26 27 28 28 29 30 30 31 31 31 31 30 30 29 28 26 25 24 22 21 19 18 17 16 15 14 14 13 13 13 13 13 13 13 13 13 13 13 13 13 13 14 14 14 14 14 15 15 15 15 16 16 16 16 16 16 16 16 16 16 16 17 17 17 17 17 17 17 17 16 16 16 16 15 15 14 14 13 13 13 13 13 14 14 15 16 17 17 18 18 18 19 20 20 22
28 27 27 26 26 26 26 26 27 28 29 30 31 31 32 31 31 31 30 29 28 27 26 24 23 21 20 18 17 16 15 14 14 13 13 13 13 13 14 14 13 13 13 13 14 13 13 13 13 14 14 14 14 14 15 15 15 15 15 15 15 15 16 16 16 16 16 16 16 16 16 16 16 16 15 15 15 15 14 13 13 13 12 12 12 12 11 12 12 12 13 13 13 14 14 15 15 16 16 17 18 18 19
28 27 26 26 26 26 26 27 28 29 31 31 32 32 32 31 30 30 29 27 26 24 23 22 20 19 17 16 15 15 14 14 13 13 13 14 14 14 14 14 14 14 14 14 14 14 13 13 13 14 14 14 14 14 14 15 15 15 15 15 15 15 15 15 15 15 15 15 15 15 15 15 14 14 14 13 13 12 12 11 11 11 11 11 11 11 11 12 12 13 13 13 13 13 13 13 13 13 13 14 15 17 18
28 27 26 26 26 27 27 28 29 31 32 32 32 32 31 30 29 27 26 24 23 21 20 19 18 17 16 15 15 14 14 14 14 14 14 14 15 14 14 14 14 14 14 14 14 14 13 13 13 14 14 14 14 15 15 15 15 15 15 15 15 15 15 15 15 14 14 14 14 14 13 13 12 12 12 11 11 11 11 11 11 11 11 11 11 11 12 12 12 12 13 13 13 12 12 12 12 12 13 14 15 16 17
28 27 26 26 27 28 29 29 31 32 32 32 32 31 29 28 26 24 23 21 20 19 17 16 16 15 15 15 15 15 14 14 14 14 15 15 15 14 14 14 14 14 15 15 14 14 13 14 14 14 14 14 15 15 15 15 14 14 14 14 14 14 14 14 14 13 13 13 13 12 12 12 12 11 11 11 11 12 12 12 12 12 12 12 12 12 12 12 12 12 12 12 12 12 12 12 13 13 14 14 15 16 17
27 27 26 27 27 28 29 30 31 31 31 31 30 28 27 25 24 22 20 19 18 17 16 15 15 15 15 15 15 15 14 15 15 15 15 15 14 14 14 14 14 15 15 15 15 14 14 14 14 15 14 15 14 14 14 14 14 14 14 14 13 13 13 13 13 13 12 12 12 12 12 12 12 12 12 12 13 13 13 13 13 13 13 13 13 12 12 12 12 12 12 13 13 13 13 14 14 15 16 16 17 18 18
27 26 25 26 27 27 28 29 30 30 29 29 27 26 25 23 21 20 19 17 17 16 16 15 15 15 15 15 15 15 15 15 15 15 15 14 14 14 14 15 15 16 16 15 15 15 14 15 15 15 15 14 14 14 14 14 14 14 14 14 13 13 13 13 13 13 13 13 13 13 13 13 13 13 13 13 13 13 14 14 14 13 13 13 13 13 13 13 13 14 14 14 14 15 15 15 16 16 17 18 19 20 20
25 24 24 24 25 25 27 27 27 27 27 26 25 24 22 21 20 18 17 17 16 16 15 15 15 15 15 15 15 15 15 15 15 15 15 15 15 14 15 15 16 16 16 15 15 15 15 15 15 15 15 14 14 14 14 14 15 15 14 14 14 14 14 14 14 14 14 14 14 14 14 14 14 14 14 14 14 14 14 14 14 14 14 14 14 14 14 15 15 15 15 15 16 16 16 17 17 17 17 18 19 20 20
23 22 22 22 23 24 25 26 26 26 25 24 23 22 20 19 18 18 17 16 16 16 15 15 15 15 15 15 15 15 15 15 15 15 16 15 15 14 15 16 16 16 15 15 15 15 15 15 15 15 15 14 15 15 15 16 16 16 15 15 15 15 15 15 15 15 14 14 14 14 14 14 14 14 14 14 14 14 14 14 14 15 15 15 15 16 16 16 16 16 17 17 17 17 17 17 17 17 17 18 18 19 19
20 20 20 21 22 23 24 25 25 25 24 23 22 21 19 19 18 17 17 16 16 16 15 15 15 15 15 15 15 15 15 15 15 15 15 15 15 15 15 15 16 16 15 15 15 15 15 15 15 15 15 15 15 16 16 16 16 16 16 16 15 15 15 15 15 15 15 15 15 15 15 15 15 15 15 15 15 15 15 15 16 16 16 16 16 17 17 17 17 17 18 17 18 18 17 18 18 17 17 17 18 18 19
19 19 20 22 23 24 24 25 24 24 23 22 21 19 19 18 18 17 16 16 16 16 16 15 15 15 15 15 15 15 14 15 15 15 15 15 15 15 16 16 15 16 16 16 16 16 15 16 16 16 15 16 16 16 16 16 16 16 16 16 16 16 16 16 16 16 16 16 16 16 16 16 15 15 15 16 16 16 16 16 16 17 17 17 17 18 18 18 18 18 18 18 18 18 18 18 17 17 17 17 17 17 17
19 20 21 23 24 24 25 25 24 23 22 21 20 19 18 18 17 17 16 16 16 16 16 15 15 14 15 15 15 15 14 15 15 15 15 15 15 16 16 16 15 15 16 16 16 16 16 16 16 16 16 16 16 16 16 16 16 17 17 17 17 17 17 17 17 17 17 17 17 16 16 16 16 16 16 16 16 17 17 17 17 17 18 18 18 18 18 18 18 18 18 18 18 18 18 17 17 17 16 16 16 16 16
20 21 23 24 25 25 25 24 23 22 21 20 19 18 18 18 17 17 16 16 16 16 16 15 15 14 14 14 14 14 14 14 15 15 15 15 15 15 15 15 16 17 17 17 17 17 17 17 17 17 16 16 16 16 16 17 17 18 17 18 18 18 18 18 18 18 18 17 17 17 17 17 17 17 17 17 17 17 17 18 18 18 18 18 18 18 18 18 18 18 18 18 18 17 17 16 16 16 16 16 16 16 15
22 23 25 25 25 25 25 23 22 21 20 19 19 18 18 18 17 17 17 16 16 16 15 15 15 14 14 14 14 14 14 14 14 14 15 15 15 15 15 15 16 17 19 19 19 18 18 18 18 17 16 16 16 17 17 17 18 18 18 18 18 18 18 18 18 18 18 18 17 17 17 17 18 18 18 18 18 18 18 18 18 18 18 18 18 18 18 18 18 18 18 17 17 17 16 16 15 16 16 17 17 17 17
24 25 26 26 26 25 24 23 22 21 20 19 19 18 18 18 18 17 17 16 16 16 15 15 15 15 14 14 14 14 14 14 14 14 14 15 15 15 15 15 15 16 16 18 18 19 20 19 19 18 17 17 17 17 18 18 18 18 18 18 18 18 18 19 18 18 18 18 18 18 18 18 18 18 18 18 18 18 18 18 18 18 18 18 18 18 18 17 17 17 17 16 16 16 15 15 16 16 17 17 18 18 19
25 26 26 26 26 25 24 23 22 20 20 19 19 18 18 18 17 17 17 16 16 16 15 15 15 15 15 15 14 14 14 14 14 14 14 14 15 15 15 15 15 16 17 17 18 19 20 20 20 19 19 19 18 18 18 18 18 18 18 18 19 19 19 19 18 18 18 18 18 18 19 19 19 19 19 19 19 19 19 19 19 19 18 18 18 17 17 17 17 16 16 16 16 15 15 16 17 17 18 18 19 20 20
27 27 27 26 25 24 23 22 21 20 20 19 19 18 18 18 17 17 17 16 16 16 16 16 16 15 15 15 15 15 14 14 14 14 14 15 15 15 15 16 16 17 17 18 19 20 20 21 21 21 21 21 20 19 18 18 18 18 19 19 19 19 19 19 19 19 19 19 19 19 19 19 19 19 19 20 19 20 19 19 18 18 18 18 17 17 17 16 16 16 16 16 16 16 16 16 17 18 18 18 19 19 19
28 28 27 26 25 24 23 22 21 21 20 19 18 18 18 17 17 17 17 17 17 17 17 17 17 17 16 16 15 15 15 15 15 15 15 15 15 15 16 17 17 18 19 19 20 21 21 21 22 22 22 22 21 20 19 18 18 18 19 19 19 19 19 19 19 19 19 19 19 19 19 19 19 20 20 20 20 19 19 19 18 18 17 17 17 17 17 16 16 16 16 16 16 16 16 16 16 17 17 17 17 17 17